Voltar ao catálogo

STARLINK-34627

AtivoComunicaçõesVLEO
NORAD 65016·PAYLOAD·🇺🇸 United States

Lançado Jul 30, 2025 de Cape Canaveral Space Force Station

Loading…

Próximas Passagens (próximas 24 horas)

TLE

AtualizadoSource: CelesTrak SupGP

Época: Sep 15, 2026, 02:26 UTC

1 65016C 25161B   26258.10187500  .00034437  00000+0  10176-2 0  2583
2 65016  53.1577 132.7863 0001299  83.4941 237.0501 15.34369162    17

Acompanhe STARLINK-34627 em tempo real com AllMySat

Download on the App Store